Preston, Minnesota, United States (55965)
Lat: 43.67N, Lon: 92.08W
Wx Zone: MNZ095
Local Info
Past Weather Observations for Today

NOTE: This archive is for the closest National Weather Service station to Preston. Information may differ from the station used for current weather conditions.

Time Weather Temperature Dewpoint Humidity Pressure Winds Precip Visibility
23:32
Clear
32°F / 0°C 28°F / -2°C 87% 30.33 in
(1027 mb)
Calm - 7SM
23:12
Clear
32°F / 0°C 28°F / -2°C 87% 30.3 in
(1026 mb)
Calm - 7SM
22:53
Clear
32°F / 0°C 28°F / -2°C 87% 30.3 in
(1026 mb)
Calm - 10SM
22:32
Clear
32°F / 0°C 28°F / -2°C 87% 30.3 in
(1026 mb)
Calm - 7SM
22:12
Clear
32°F / 0°C 28°F / -2°C 87% 30.3 in
(1026 mb)
Calm - 10SM
21:52
Clear
32°F / 0°C 28°F / -2°C 87% 30.3 in
(1026 mb)
Calm - 10SM
21:32
Partly Cloudy
32°F / 0°C 28°F / -2°C 87% 30.3 in
(1026 mb)
NE 4.6 mph
(NE 7 kph)
- 10SM
21:12
Overcast
34°F / 1°C 28°F / -2°C 81% 30.3 in
(1026 mb)
NNE 3.5 mph
(NNE 6 kph)
- 10SM
20:52
Overcast
34°F / 1°C 28°F / -2°C 81% 30.3 in
(1026 mb)
N 3.5 mph
(N 6 kph)
- 10SM
20:32
Overcast
34°F / 1°C 28°F / -2°C 81% 30.3 in
(1026 mb)
N 5.8 mph
(N 9 kph)
- 10SM
20:12
Overcast
36°F / 2°C 28°F / -2°C 75% 30.3 in
(1026 mb)
N 8.1 mph
(N 13 kph)
- 10SM
19:52
Overcast
36°F / 2°C 28°F / -2°C 75% 30.3 in
(1026 mb)
NNW 5.8 mph
(NNW 9 kph)
- 10SM
19:32
Overcast
36°F / 2°C 28°F / -2°C 75% 30.3 in
(1026 mb)
N 5.8 mph
(N 9 kph)
- 10SM
19:12
Overcast
36°F / 2°C 28°F / -2°C 75% 30.27 in
(1025 mb)
N 6.9 mph
(N 11 kph)
- 10SM
18:52
Overcast
36°F / 2°C 28°F / -2°C 75% 30.27 in
(1025 mb)
N 4.6 mph
(N 7 kph)
- 10SM
18:32
Overcast
37°F / 3°C 30°F / -1°C 75% 30.27 in
(1025 mb)
N 8.1 mph
(N 13 kph)
- 10SM
18:12
Overcast
37°F / 3°C 30°F / -1°C 75% 30.27 in
(1025 mb)
N 4.6 mph
(N 7 kph)
- 10SM
17:52
Overcast
37°F / 3°C 30°F / -1°C 75% 30.27 in
(1025 mb)
N 5.8 mph
(N 9 kph)
- 10SM
17:29
Mostly Cloudy
37°F / 3°C 30°F / -1°C 75% 30.27 in
(1025 mb)
N 8.1 mph
(N 13 kph)
- 10SM
17:12
Overcast
37°F / 3°C 30°F / -1°C 75% 30.27 in
(1025 mb)
N 6.9 mph
(N 11 kph)
- 10SM
16:52
Overcast
37°F / 3°C 30°F / -1°C 75% 30.27 in
(1025 mb)
NNW 9.2 mph
(NNW 15 kph)
- 10SM
16:32
Overcast
37°F / 3°C 30°F / -1°C 75% 30.27 in
(1025 mb)
NNW 6.9 mph
(NNW 11 kph)
- 10SM
16:12
Overcast
37°F / 3°C 30°F / -1°C 75% 30.27 in
(1025 mb)
NW 11.5 mph
(NW 19 kph)
- 10SM
15:52
Overcast
37°F / 3°C 30°F / -1°C 75% 30.27 in
(1025 mb)
NNW 11.5 mph
(NNW 19 kph)
- 10SM
15:32
Overcast
37°F / 3°C 30°F / -1°C 75% 30.27 in
(1025 mb)
NW 8.1 mph
(NW 13 kph)
- 10SM
15:12
Overcast
37°F / 3°C 30°F / -1°C 75% 30.27 in
(1025 mb)
NW 8.1 mph
(NW 13 kph)
- 10SM
14:52
Overcast
37°F / 3°C 30°F / -1°C 75% 30.27 in
(1025 mb)
NNW 10.4 mph
(NNW 17 kph)
- 10SM
14:32
Overcast
37°F / 3°C 30°F / -1°C 75% 30.27 in
(1025 mb)
NW 10.4 mph
(NW 17 kph)
- 10SM
14:12
Overcast
36°F / 2°C 30°F / -1°C 81% 30.27 in
(1025 mb)
NW 11.5 mph
(NW 19 kph)
- 10SM
13:52
Overcast
36°F / 2°C 30°F / -1°C 81% 30.27 in
(1025 mb)
NW 12.7 mph
(NW 20 kph)
- 10SM
13:32
Overcast
36°F / 2°C 30°F / -1°C 81% 30.27 in
(1025 mb)
NNW 10.4 mph
(NNW 17 kph)
- 10SM
13:12
Overcast
36°F / 2°C 30°F / -1°C 81% 30.27 in
(1025 mb)
NW 12.7 mph
(NW 20 kph)
- 10SM
12:52
Overcast
36°F / 2°C 30°F / -1°C 81% 30.27 in
(1025 mb)
NW 10.4 mph
(NW 17 kph)
- 10SM
12:32
Overcast
36°F / 2°C 30°F / -1°C 81% 30.27 in
(1025 mb)
NW 9.2 mph
(NW 15 kph)
- 10SM
12:12
Overcast
36°F / 2°C 30°F / -1°C 81% 30.24 in
(1024 mb)
NNW 9.2 mph
(NNW 15 kph)
- 10SM
11:52
Overcast
36°F / 2°C 30°F / -1°C 81% 30.24 in
(1024 mb)
NNW 15 mph
(NNW 24 kph)
- 10SM
11:32
Overcast
36°F / 2°C 32°F / 0°C 87% 30.24 in
(1024 mb)
NW 13.8 mph
(NW 22 kph)
- 10SM
11:12
Overcast
36°F / 2°C 32°F / 0°C 87% 30.21 in
(1023 mb)
NW 16.1 mph
(NW 26 kph)
- 10SM
10:52
Overcast
36°F / 2°C 32°F / 0°C 87% 30.21 in
(1023 mb)
NW 16.1 mph
(NW 26 kph)
- 7SM
10:32
Overcast
36°F / 2°C 32°F / 0°C 87% 30.21 in
(1023 mb)
NW 15 mph
(NW 24 kph)
- 10SM
10:12
Overcast
36°F / 2°C 32°F / 0°C 87% 30.21 in
(1023 mb)
NW 15 mph
(NW 24 kph)
- 7SM
09:52
Overcast
34°F / 1°C 32°F / 0°C 93% 30.21 in
(1023 mb)
NW 13.8 mph
(NW 22 kph)
- 7SM
09:32
Overcast
Fog And Mist
34°F / 1°C 32°F / 0°C 93% 30.21 in
(1023 mb)
NW 13.8 mph
(NW 22 kph)
- 5SM
09:12
Overcast
Fog And Mist
34°F / 1°C 32°F / 0°C 93% 30.18 in
(1022 mb)
NW 13.8 mph
(NW 22 kph)
- 5SM
08:52
Overcast
Fog And Mist
34°F / 1°C 32°F / 0°C 93% 30.18 in
(1022 mb)
NW 13.8 mph
(NW 22 kph)
- 4SM
08:32
Overcast
Fog And Mist
34°F / 1°C 32°F / 0°C 93% 30.18 in
(1022 mb)
NW 15 mph
(NW 24 kph)
- 4SM
08:12
Overcast
Fog And Mist
34°F / 1°C 32°F / 0°C 93% 30.15 in
(1021 mb)
NW 12.7 mph
(NW 20 kph)
- 3SM
07:52
Overcast
Fog And Mist
32°F / 0°C 32°F / 0°C 100% 30.15 in
(1021 mb)
NW 13.8 mph
(NW 22 kph)
- 3SM
07:32
Overcast
Fog And Mist
32°F / 0°C 32°F / 0°C 100% 30.12 in
(1020 mb)
NW 13.8 mph
(NW 22 kph)
- 3SM
07:12
Overcast
Fog And Mist
32°F / 0°C 32°F / 0°C 100% 30.12 in
(1020 mb)
NW 16.1 mph
(NW 26 kph)
- 5SM
06:52
Overcast
Fog And Mist
32°F / 0°C 32°F / 0°C 100% 30.09 in
(1019 mb)
NW 13.8 mph
(NW 22 kph)
- 4SM
06:32
Overcast
Fog And Mist
32°F / 0°C 32°F / 0°C 100% 30.06 in
(1018 mb)
NW 17.3 mph
(NW 28 kph)
- 3SM
06:12
Overcast
Fog And Mist
32°F / 0°C 32°F / 0°C 100% 30.06 in
(1018 mb)
NW 19.6 mph
(NW 32 kph)
- 2SM
05:52
Overcast
Fog And Mist
32°F / 0°C 32°F / 0°C 100% 30.06 in
(1018 mb)
NW 17.3 mph
(NW 28 kph)
- 1 3/4SM
05:32
Overcast
Fog And Mist
32°F / 0°C 32°F / 0°C 100% 30.04 in
(1017 mb)
NW 16.1 mph
(NW 26 kph)
- 1 1/4SM
05:12
Overcast
Fog And Mist
34°F / 1°C 32°F / 0°C 93% 30.04 in
(1017 mb)
NW 15 mph
(NW 24 kph)
- 1 1/2SM
04:52
Overcast
Fog And Mist
34°F / 1°C 34°F / 1°C 100% 30.01 in
(1016 mb)
NW 16.1 mph
(NW 26 kph)
- 1SM
04:32
Overcast
Fog And Mist
34°F / 1°C 34°F / 1°C 100% 29.98 in
(1015 mb)
NW 19.6 mph
(NW 32 kph)
- 1 1/4SM
04:12
Overcast
Fog And Mist
34°F / 1°C 34°F / 1°C 100% 29.98 in
(1015 mb)
WNW 16.1 mph
(WNW 26 kph)
- 1 1/2SM
03:52
Overcast
Fog And Mist
36°F / 2°C 34°F / 1°C 93% 29.95 in
(1014 mb)
WNW 18.4 mph
(WNW 30 kph)
- 1 1/2SM
03:32
Overcast
Fog And Mist
36°F / 2°C 36°F / 2°C 100% 29.92 in
(1013 mb)
NW 18.4 mph
(NW 30 kph)
- 1 1/4SM
03:12
Overcast
Fog And Mist
36°F / 2°C 36°F / 2°C 100% 29.92 in
(1013 mb)
W 19.6 mph
(W 32 kph)
- 1 1/2SM
02:52
Overcast
Fog And Mist
36°F / 2°C 36°F / 2°C 100% 29.89 in
(1012 mb)
W 21.9 mph
(W 35 kph)
- 1 1/4SM
02:32
Overcast
Fog And Mist
37°F / 3°C 36°F / 2°C 93% 29.89 in
(1012 mb)
W 19.6 mph
(W 32 kph)
- 2SM
02:12
Overcast
Fog And Mist
39°F / 4°C 37°F / 3°C 93% 29.86 in
(1011 mb)
W 18.4 mph
(W 30 kph)
- 4SM
01:52
Overcast
41°F / 5°C 37°F / 3°C 87% 29.86 in
(1011 mb)
SSW 20.7 mph
(SSW 33 kph)
- 10SM
01:32
Overcast
Light Rain
43°F / 6°C 36°F / 2°C 76% 29.83 in
(1010 mb)
SW 9.2 mph
(SW 15 kph)
- 10SM
01:12
Overcast
Drizzle
45°F / 7°C 34°F / 1°C 66% 29.83 in
(1010 mb)
S 12.7 mph
(S 20 kph)
- 10SM
00:52
Overcast
45°F / 7°C 32°F / 0°C 61% 29.83 in
(1010 mb)
S 16.1 mph
(S 26 kph)
- 10SM
00:32
Overcast
46°F / 8°C 32°F / 0°C 57% 29.83 in
(1010 mb)
S 18.4 mph
(S 30 kph)
- 10SM
00:12
Overcast
46°F / 8°C 32°F / 0°C 57% 29.83 in
(1010 mb)
SSE 24.2 mph
(SSE 39 kph)
- 10SM
Time Weather Temperature Dewpoint Humidity Pressure Winds Precip Visibility


Weather for websites

WeatherForYou.com, LLC is not responsible for any damages or problems caused by this service. Current weather conditions are obtained from the closest station including government and personal stations which may have varying degrees of accuracy. Weather forecasts are derived from the NOAA NDFD. Like all things, this site belongs to Jesus Christ... He just trusts me to maintain it. If you have any questions or comments email webmaster@weatherforyou.com

Copyright © 2014, WeatherForYou.com LLC. All rights reserved.